User: anonymous   Login
Location: Unspecified
(0.0000°N, 0.0000°E)
Time: 04:06:10
(UTC+00:00)
Language:

TIANWANG 1A (TW-1A) - Orbit

View from above orbital plane
View from above orbital plane
View from above satellite
View from above satellite

Ground track
Ground track

The orbit data is extracted from the following two-line orbital elements,

1 40928U 15051D   18022.49677336 +.00002703 +00000-0 +74670-4 0  9993
2 40928 097.2031 059.3029 0013785 122.7624 344.0343 15.37825271130380
Epoch (UTC): 22 January 2018 11:55:21
Eccentricity: 0.0013785
inclination: 97.2031°
perigee height: 443 km
apogee height: 462 km
right ascension of ascending node: 59.3029°
argument of perigee: 122.7624°
revolutions per day: 15.37825271
mean anomaly at epoch: 344.0343°
orbit number at epoch: 13038

The dashed part of the orbit path shows where the satellite is in the earth's shadow,  

DLR